Find iSat

NORAD ID: 43879 Int'l Des: 2018-111 Owner: ISKY Country: CZ operational
LEOCIRCULARRETROGRADE

Live Position

Loading 3D Globe...

About iSat

Description loading...

Upcoming Passes

Passes for default location (London). Set your location on the main map for personalized predictions.

Altitude History

Loading altitude history...

Two-Line Element Set

1 43879U 18111D 26109.55245935 .00066203 00000-0 93130-3 0 9995
2 43879 97.5909 40.7043 0008122 128.1054 232.0934 15.56419497402026
Epoch: Apr 19, 2026 • Age: 7 hours

Current Status

Altitude 429.8 km
Velocity 7.65 km/s
Sub-Earth Point -72.54°S, 91.83°W
Launch Date Dec 27, 2018
Age 7.3 years
Type other

Technical Details

Classification Payload
Mass 3.00 kg
Dry Mass 3.00 kg
Total Mass 3.00 kg
Length 0.30 m
Diameter 0.10 m
Span 1.00 m
Shape Box + Ant
Manufacturer GOS
Bus Type Cubesat 3U
Phase Status In Orbit
Owner/State ISKY/CZ

Most Searched